Regional Weather Roundup
Issued by NWS

Home | Current Version | Previous Version | Text Only | Print | Product List | Glossary Off
Versions: 1 2 3 4 5 6 7 8 9 10 11 12 13 14 15 16 17 18 19 20 21 22 23 24 25 26 27 28

000
ASUS45 KSLC 200210
RWRUT

UTAH REGIONAL WEATHER ROUNDUP
NATIONAL WEATHER SERVICE SALT LAKE CITY UT
700 PM MST FRI JAN 19 2018

UTZ001>011-023>025-200300-

NORTHERN UTAH

CITY           SKY/WX    TMP DP  RH WIND       PRES   REMARKS
BRIGHAM CITY   CLOUDY    33  31  92 NW6       29.95R WCI  27
HILL AFB       LGT SNOW  31  31  99 NW18G25   29.90R FOG     WCI  19
LOGAN          LGT SNOW  35  31  85 N20       29.93R FOG     WCI  24
OGDEN          LGT SNOW  32  31  96 NW18      29.91R FOG     WCI  20
SALT LAKE CITY LGT SNOW  35  33  92 NW12      29.94R FOG     WCI  27
TOOELE VALLEY  LGT SNOW  32  32 100 CALM      29.96R
WENDOVER       LGT SNOW  33  30  88 E8        29.95R FOG     WCI  26
HEBER CITY     CLOUDY    45  27  49 SW7       29.76R
WEST JORDAN    CLOUDY    32  32 100 NW9       29.96R WCI  24

$$

UTZ011>015-024>027-200300-

CENTRAL/NORTHEAST UTAH

CITY           SKY/WX    TMP DP  RH WIND       PRES   REMARKS
PROVO AIRPORT  CLOUDY    36  30  79 NW21      29.89R WCI  25
MOAB/CANYONLAN CLOUDY    34  24  67 CALM      29.85S
DELTA          CLOUDY    36  32  87 N14       29.86R WCI  27
PRICE          CLOUDY    34  22  61 N6        29.87F WCI  29
ROOSEVELT      CLOUDY    32  21  64 W6        29.85F WCI  26
VERNAL         CLOUDY    31  20  63 SW3       29.83S

$$

UTZ013>016-019>022-027-200300-

SOUTHERN UTAH

CITY           SKY/WX    TMP DP  RH WIND       PRES   REMARKS
BRYCE CANYON   CLOUDY    40  27  59 S14       29.92S WCI  32
CEDAR CITY     CLOUDY    50  28  42 S14G22    29.82F
MILFORD        CLOUDY    49  29  46 S14       29.82S
ST GEORGE      CLOUDY    59  33  37 W7        29.81S
HANKSVILLE     CLOUDY    41  19  42 N10       29.85F
BLANDING         N/A     37  17  43 N6        30.01S WCI  32

$$

REGIONAL REPORTS     COLORADO/ARIZONA

CITY           SKY/WX    TMP DP  RH WIND       PRES   REMARKS
CRAIG, CO      CLOUDY    37  25  61 W10       29.82F WCI  30
GRAND JUNCTION CLOUDY    36  21  54 NE7       29.87S WCI  30
RIFLE, CO      CLOUDY    38  23  55 S3        29.87S
MONTROSE, CO   MOCLDY    43  22  43 SE7       29.91R
CORTEZ, CO     CLEAR     34  19  54 NE7       29.96S WCI  28
COLORADO CITY    N/A     50  32  50 CALM      29.90S
PAGE, AZ       PTCLDY    48  24  39 SW5       29.85F
GRAND CANYON   PTCLDY    46  24  42 SW16      29.96F
KINGMAN, AZ    CLOUDY    58  28  32 SE6       29.87S
FLAGSTAFF, AZ  CLEAR     38  19  46 SW6       30.02R WCI  33

$$

REGIONAL REPORTS    NEVADA/IDAHO/WYOMING

CITY           SKY/WX    TMP DP  RH WIND       PRES   REMARKS
LAS VEGAS, NV  CLOUDY    64  36  35 SW10G23   29.78R
ELY, NY        HVY SNOW  26  24  92 NW12      29.90S VSB 1/4 WCI  16
ELKO, NV       CLOUDY    31  28  89 CALM      29.94R
POCATELLO, ID  CLOUDY    33  28  81 SW10      29.90R WCI  25
BURLEY, ID     CLOUDY    34  27  75 W12       29.92S WCI  25
FORT BRIDGER,  FLURRIES  29  29 100 NW14      29.84R WCI  18
EVANSTON, WY   LGT SNOW  27  26  96 N23       29.82R FOG     WCI  12
ROCK SPRINGS,  MOCLDY    36  28  73 W9        29.79R WCI  29

$$




USA.gov is the U.S. government's official web portal to all federal, state and local government web resources and services.